Location: ?nandapuram
(16.5396°N, 81.1430°E)
Time: 22:50:36
(UTC+00:00)

Cosmos 1777 Rocket - Pass Details

Date: 14 April 2026
Orbit: 753 x 771 km, 74.0° (Epoch: 9 May)

Event Time Altitude Azimuth Distance (km) Brightness Sun altitude
Rises 23:08:54 0° 338° (NNW) 3,230 7.2 -17.5°
Reaches altitude 10° 23:11:20 10° 333° (NNW) 2,301 6.4 -17.0°
Maximum altitude 23:16:22 50° 259° (WSW) 968 4.1 -15.8°
Drops below altitude 10° 23:21:22 10° 184° (S) 2,285 6.3 -14.6°
Sets 23:23:47 0° 179° (S) 3,206 7.1 -14.1°
